EW7643 Weather Reports


time (UTC)temp
C
wind
direction
speed
KPH
gust
KPH
rain 1hr
cm
rain 24hr
cm
rain mn
cm
humidity
%
barometer
mb
20260505200024 27 119 0.0 11.3 0.00 0.03 0.03 79 1009.2
20260505194509 27 103 0.0 9.7 0.00 0.03 0.03 79 1009.2
20260505193012 26 126 0.0 14.5 0.00 0.03 0.03 79 1009.2
20260505191518 26 113 0.0 0.0 0.00 0.03 0.03 80 1009.4
20260505190023 26 110 0.0 0.0 0.00 0.03 0.03 80 1009.5
20260505184525 26 119 0.0 0.0 0.00 0.03 0.03 80 1009.7
20260505183011 26 113 0.0 0.0 0.00 0.03 0.03 80 1009.8
20260505181514 26 127 0.0 0.0 0.00 0.03 0.03 80 1009.9
20260505180038 26 136 0.0 0.0 0.00 0.03 0.03 79 1009.9
20260505174522 26 115 0.0 0.0 0.00 0.03 0.03 80 1009.9
20260505173025 26 105 0.0 0.0 0.00 0.03 0.03 80 1010.1
20260505171511 26 104 0.0 0.0 0.00 0.03 0.03 79 1010.2
20260505170017 26 106 0.0 0.0 0.00 0.03 0.03 80 1010.3
20260505164522 26 104 0.0 0.0 0.00 0.03 0.03 79 1010.3
20260505163029 26 108 0.0 0.0 0.00 0.03 0.03 80 1010.2
20260505161526 26 164 0.0 0.0 0.00 0.03 0.03 80 1010.3
20260505153021 26 116 0.0 0.0 0.00 0.03 0.03 79 1010.0
20260505151526 25 105 0.0 0.0 0.00 0.03 0.03 80 1009.9
20260505124512 22 117 0.0 0.0 0.00 0.00 0.00 76 1009.6
20260505123023 -17 0.0 0.0 0.00 0.00 0.00 1009.3
20260505121510 -17 0.0 0.0 0.00 0.00 0.00 1009.2
20260505120019 -17 0.0 0.0 0.00 0.00 0.00 1009.5
20260505114516 -17 0.0 0.0 0.00 0.00 0.00 1009.3
20260505113012 -17 0.0 0.0 0.00 0.00 0.00 1009.1
20260505111519 -17 0.0 0.0 0.00 0.00 0.00 1009.5
20260505101529 -17 0.0 0.0 0.00 0.00 0.00 1009.4
20260505100035 -17 0.0 0.0 0.00 0.00 0.00 1009.2
20260505094504 21 112 0.0 0.0 0.00 0.00 0.00 77 1009.3
20260505093016 22 123 0.0 0.0 0.00 0.00 0.00 77 1009.6
20260505091519 22 113 0.0 0.0 0.00 0.00 0.00 78 1009.5
20260505090017 22 126 0.0 0.0 0.00 0.00 0.00 78 1009.6
20260505084519 22 110 0.0 0.0 0.00 0.00 0.00 79 1009.5
20260505083006 22 108 0.0 0.0 0.00 0.00 0.00 80 1009.6
20260505081512 22 126 0.0 0.0 0.00 0.00 0.00 79 1009.6
20260505080015 22 105 0.0 0.0 0.00 0.00 0.00 79 1009.8
20260505074521 21 131 0.0 0.0 0.00 0.00 0.00 79 1009.8
20260505073033 21 117 0.0 0.0 0.00 0.00 0.00 79 1009.9
20260505071508 21 108 0.0 0.0 0.00 0.00 0.00 79 1010.1
20260505070014 21 115 0.0 0.0 0.00 0.00 0.00 79 1010.2
20260505064520 21 115 0.0 0.0 0.00 0.00 0.00 79 1010.5
20260505063022 21 124 0.0 0.0 0.00 0.00 0.00 78 1010.9
20260505061525 21 130 0.0 0.0 0.00 0.00 0.00 79 1010.9
20260505060012 20 103 0.0 0.0 0.00 0.00 0.00 78 1010.9
20260505054516 20 120 0.0 0.0 0.00 0.00 0.00 79 1011.1
20260505053030 20 120 0.0 0.0 0.00 0.00 0.00 79 1011.1
20260505051535 20 120 0.0 0.0 0.00 0.00 0.00 80 1011.1
20260505041525 20 120 0.0 0.0 0.00 0.00 0.00 81 1011.6
20260505040025 20 120 0.0 0.0 0.00 0.00 0.00 81 1011.6
20260505034522 21 120 0.0 0.0 0.00 0.00 0.00 81 1011.8
20260505033012 21 120 0.0 0.0 0.00 0.00 0.00 80 1011.7
20260505031521 21 120 0.0 0.0 0.00 0.00 0.00 80 1011.7
20260505030023 21 116 0.0 0.0 0.00 0.00 0.00 80 1011.8
20260505024526 21 112 0.0 0.0 0.00 0.00 0.00 80 1011.9
20260505023026 21 115 0.0 0.0 0.00 0.00 0.00 79 1011.6
20260505021516 22 127 0.0 0.0 0.00 0.00 0.00 78 1011.6
20260505020004 22 123 0.0 0.0 0.00 0.00 0.00 78 1011.6
20260505014504 22 115 0.0 0.0 0.00 0.00 0.00 77 1011.5
20260505013009 22 113 0.0 0.0 0.00 0.00 0.00 77 1011.4
20260505011513 22 116 0.0 0.0 0.00 0.00 0.00 76 1011.4
20260505010029 22 120 0.0 0.0 0.00 0.00 0.00 75 1011.3
20260505004503 22 115 0.0 0.0 0.00 0.00 0.00 74 1011.2
20260505003009 23 93 0.0 0.0 0.00 0.00 0.00 73 1011.2
20260505001508 23 105 0.0 6.4 0.00 0.00 0.00 72 1011.2
20260505000023 23 121 0.0 9.7 0.00 0.00 0.00 71 1011.4
20260504234516 23 112 3.2 16.1 0.00 0.00 0.00 70 1011.4
20260504233013 24 120 1.6 11.3 0.00 0.00 0.00 69 1011.6
20260504231504 25 125 0.0 0.0 0.00 0.00 0.00 69 1011.7
20260504230008 25 137 0.0 0.0 0.00 0.00 0.00 69 1011.9
20260504224515 25 99 0.0 0.0 0.00 0.00 0.00 68 1011.9
20260504223020 24 116 0.0 0.0 0.00 0.00 0.00 69 1012.2
20260504221512 24 120 0.0 0.0 0.00 0.00 0.00 68 1012.5
20260504220007 24 126 0.0 0.0 0.00 0.00 0.00 68 1012.5
20260504214510 25 98 0.0 0.0 0.00 0.00 0.00 66 1012.7
20260504213018 25 172 0.0 8.0 0.00 0.00 0.00 64 1012.8
20260504211522 26 224 0.0 9.7 0.00 0.00 0.00 63 1012.8
20260504210006 26 122 1.6 9.7 0.00 0.00 0.00 62 1013.1
20260504204506 26 105 0.0 4.8 0.00 0.00 0.00 61 1013.1
20260504203014 26 167 0.0 0.0 0.00 0.00 0.00 61 1013.4
20260504201523 27 96 0.0 9.7 0.00 0.00 0.00 60 1013.5